Theta_e
312 313 314 314 312 310 310 312 311 311 310 310 311 311 312 312 312 312 313 311 309 308 308 308 308 307 307 308 306 304 303 302 301 301 300 300 300 299 299 299 298 298 298 299 299 298 298 298 298 297 297 297 297 296 296 296 296 296 296 297 297 297 297 297 298 299 299 298 298 299 299 300 302 303 303 305 310 314 315 314 315 318 321 324 324 324
313 314 315 313 310 308 309 310 309 309 310 310 311 312 312 312 312 312 312 310 309 308 308 308 308 307 307 308 306 304 303 301 300 300 299 299 299 299 299 299 298 298 298 299 298 298 297 296 296 296 296 296 296 296 296 296 296 296 296 296 296 296 297 297 297 298 299 299 298 298 299 300 301 303 303 303 306 310 313 314 314 315 318 322 323 324
314 314 312 310 308 309 309 309 309 309 310 311 312 312 312 312 312 311 311 310 309 308 308 308 308 307 307 308 306 304 302 301 300 300 300 299 299 299 298 298 298 297 297 297 297 297 296 295 295 295 295 295 295 296 296 296 296 295 295 295 295 295 296 296 296 297 297 299 299 299 298 299 300 301 302 303 305 307 310 311 312 313 315 318 321 323
312 312 310 308 308 309 310 310 310 310 311 312 313 313 312 313 312 311 311 309 308 308 308 308 308 307 308 307 305 303 302 302 301 300 300 299 298 298 298 298 297 296 296 296 296 296 295 295 295 295 295 295 295 295 295 295 295 295 296 295 295 295 295 296 296 296 296 297 299 299 299 299 299 300 302 303 303 304 304 305 308 311 313 316 318 321
311 310 308 309 309 310 311 311 312 312 311 311 314 313 313 312 310 310 309 308 307 308 308 307 306 306 308 307 305 303 303 302 300 299 299 299 298 298 297 297 296 296 296 295 295 295 295 295 295 295 295 294 294 295 294 295 295 295 295 295 295 295 295 295 295 296 296 296 297 298 299 298 298 299 300 301 301 300 300 300 303 307 310 313 315 317
310 308 308 311 311 311 312 312 313 313 309 310 313 312 311 309 308 308 308 308 307 307 307 306 305 306 308 308 306 305 303 301 299 299 298 298 297 297 296 296 296 296 296 295 295 295 295 295 295 295 294 294 294 294 294 294 294 294 294 295 295 295 295 295 295 295 296 296 296 297 298 298 298 299 299 299 300 300 301 300 301 304 307 310 312 314
308 307 309 312 312 313 313 312 313 312 309 310 311 309 308 308 308 308 307 308 307 306 306 305 305 306 306 306 307 305 303 300 299 298 298 297 297 296 296 295 295 295 295 295 295 294 294 294 294 294 294 294 294 294 294 294 294 294 294 294 294 295 295 295 295 295 295 296 296 296 297 298 298 299 299 299 300 300 300 300 299 301 304 307 309 311
308 308 309 311 311 312 311 311 312 310 309 310 308 306 306 306 306 307 307 307 307 305 305 305 306 306 305 306 308 305 302 300 298 298 298 297 296 295 295 295 295 295 295 295 294 294 294 294 294 294 294 294 293 294 294 294 294 294 294 294 294 294 294 295 295 295 295 295 295 295 296 297 298 298 298 298 300 300 299 299 298 299 302 304 306 307
309 310 311 310 310 310 310 310 310 310 310 308 305 304 304 305 306 307 308 307 306 305 305 305 306 307 307 307 308 305 302 301 299 298 297 296 296 295 295 295 295 295 294 294 294 294 294 294 294 294 293 294 293 293 294 293 294 294 294 294 294 294 294 294 294 295 295 295 295 295 295 296 297 298 299 298 299 300 299 299 297 296 300 302 304 305
308 307 307 308 309 309 308 307 307 308 309 305 304 305 307 307 308 308 307 306 304 304 305 305 306 307 307 307 306 305 303 302 299 297 297 296 295 295 295 295 294 294 294 294 294 294 294 293 293 294 293 293 293 293 293 293 294 293 293 294 294 294 293 293 294 294 295 295 295 295 295 295 296 297 299 299 299 300 300 299 298 296 297 300 301 303
307 305 305 307 308 308 306 305 305 305 305 304 306 307 308 308 308 306 305 303 303 305 306 306 306 305 304 304 304 303 301 300 298 297 296 296 295 295 294 294 294 294 294 294 293 293 294 293 293 293 293 293 293 293 293 293 293 293 293 293 293 293 293 293 293 293 293 294 294 295 295 295 295 296 298 299 299 299 300 300 299 297 296 297 299 301
308 307 308 307 306 307 306 306 307 305 305 306 307 306 305 305 305 304 304 303 303 306 306 305 304 303 301 302 302 300 298 297 296 296 296 295 295 294 294 294 294 294 294 293 293 293 293 293 293 293 293 293 293 293 293 293 293 293 293 293 293 293 292 292 292 292 293 293 293 294 295 295 295 296 297 299 299 299 300 300 299 297 296 297 298 299
310 309 309 307 305 306 308 309 309 308 306 306 306 305 304 305 305 305 305 304 304 306 304 301 300 299 299 301 301 299 297 296 296 296 295 295 294 294 294 294 293 294 293 293 293 293 293 293 293 293 293 293 293 293 293 293 293 293 292 292 292 292 292 292 292 292 292 293 293 294 294 294 295 295 296 298 299 299 299 300 299 297 296 297 297 298
312 310 307 307 306 306 308 309 310 309 306 304 305 304 303 304 303 304 305 304 305 305 302 300 299 298 300 301 301 299 297 296 296 295 295 294 294 293 293 293 293 293 293 293 292 292 292 293 293 293 293 293 293 293 292 292 292 292 292 291 291 291 291 291 292 292 292 292 293 294 294 294 294 295 296 297 299 298 299 299 299 297 296 296 297 297
312 312 309 308 306 305 307 307 306 306 304 303 303 302 302 303 302 302 302 302 303 303 301 300 299 299 301 301 300 298 297 296 296 295 295 294 294 294 293 293 293 293 293 292 292 292 292 293 293 293 293 293 292 292 292 292 291 291 291 290 290 290 289 288 289 289 289 290 292 293 293 294 294 295 295 297 298 298 298 299 299 298 297 296 296 296
310 312 309 304 302 303 304 303 302 304 304 303 302 302 302 302 301 301 301 301 301 300 300 300 300 301 301 300 298 297 297 296 296 295 294 294 293 293 293 293 293 292 292 292 292 292 292 293 293 292 292 292 291 291 291 291 291 290 290 289 288 287 285 285 285 286 287 287 288 290 291 293 294 294 295 296 297 298 298 298 299 298 297 296 296 296
310 311 306 301 301 300 299 301 301 303 304 302 301 301 300 299 299 298 299 301 300 299 300 300 300 301 300 300 298 297 296 296 296 295 294 293 293 293 293 293 292 292 292 292 292 292 292 292 292 292 292 292 291 291 291 290 290 289 287 286 285 285 284 283 283 284 285 286 287 287 288 291 294 294 295 296 297 297 298 298 299 299 298 296 296 296
309 309 306 303 303 299 297 299 299 299 301 301 300 300 298 298 297 295 296 298 299 300 301 300 300 300 299 299 298 297 296 295 295 294 293 293 293 293 293 292 292 292 292 291 292 292 292 292 292 292 291 291 290 290 289 289 288 286 285 285 285 285 284 284 284 283 283 285 287 288 288 290 293 294 295 295 296 297 297 298 298 299 298 297 296 296
306 307 307 304 303 299 297 300 300 298 298 299 299 297 297 297 297 296 297 297 298 299 300 300 299 298 298 299 298 297 296 295 294 293 293 292 292 292 292 292 292 291 291 292 291 291 291 291 292 291 291 290 289 288 287 287 286 285 284 285 286 285 284 285 285 283 283 284 285 287 288 290 292 294 295 295 296 297 297 298 298 299 298 298 296 296
304 305 306 302 300 299 299 300 301 300 297 297 297 297 297 296 296 297 297 297 298 298 299 299 298 298 298 298 297 296 295 294 294 293 293 292 292 292 292 291 291 291 291 291 291 291 291 291 291 290 289 289 288 287 286 285 285 284 284 284 285 285 283 284 285 284 284 284 283 283 286 287 289 292 294 295 295 296 297 297 298 298 298 298 297 296
303 304 304 301 298 298 299 300 301 301 299 298 297 296 297 296 295 296 296 295 296 296 297 297 297 297 297 296 295 295 294 294 293 293 292 292 292 292 292 291 291 291 291 291 291 291 290 291 291 289 289 288 287 286 285 284 284 284 284 284 284 284 283 282 284 284 282 282 282 282 283 283 284 287 291 294 295 296 296 297 298 298 298 298 297 296
303 303 304 301 299 299 300 299 298 299 299 298 297 297 296 296 296 296 296 296 295 295 295 295 295 296 296 295 295 295 294 294 293 293 292 292 292 292 291 291 291 291 291 291 290 290 290 290 289 288 288 287 285 285 284 283 283 282 283 283 282 282 282 281 282 283 281 280 280 281 281 281 282 283 286 290 293 295 296 297 297 298 298 298 297 296
302 301 302 303 301 299 298 296 295 296 297 297 297 296 296 296 296 296 296 296 295 294 294 294 294 295 295 295 295 294 294 294 293 293 292 292 292 291 291 291 291 291 291 290 290 290 290 289 288 287 287 285 284 284 283 281 282 281 281 281 281 281 281 281 281 282 282 281 279 280 280 280 281 282 284 286 288 291 295 297 297 298 298 298 297 297
301 300 300 302 301 296 294 294 295 295 295 295 295 295 295 296 296 295 295 295 294 294 294 294 295 296 295 295 295 294 294 294 293 292 292 292 291 291 291 290 291 291 290 290 289 289 289 288 287 286 285 284 283 283 282 281 281 281 281 280 280 280 280 280 279 279 281 281 278 278 279 279 280 281 282 284 285 287 291 295 297 297 297 298 298 296
301 300 299 300 301 298 296 294 294 294 294 294 294 295 296 296 295 295 294 294 294 294 293 293 294 294 295 296 295 295 295 294 293 292 292 291 291 291 290 290 291 290 290 289 289 288 288 287 286 285 284 284 283 282 281 281 280 280 279 278 279 279 279 278 278 278 279 278 277 277 278 278 279 279 281 283 284 285 288 292 295 296 297 297 298 297
301 300 299 300 302 303 302 299 296 296 294 293 294 294 295 295 295 294 294 294 295 294 294 294 293 294 295 295 295 295 294 293 292 292 292 291 291 291 290 290 290 290 289 289 288 287 286 285 285 284 283 283 283 282 281 280 280 279 278 277 277 277 277 277 276 276 277 276 276 276 277 278 278 279 280 280 282 283 285 288 291 293 296 297 297 297
297 297 297 299 302 303 303 299 296 296 294 294 294 294 294 295 295 295 294 294 294 294 294 294 294 294 295 294 294 294 293 292 292 292 291 291 291 290 290 290 290 290 289 288 288 287 286 285 284 283 283 282 281 281 280 280 279 278 277 277 276 276 276 276 275 275 275 275 275 276 277 277 278 278 279 279 280 281 282 283 284 287 292 296 297 296
295 296 296 298 299 299 299 297 295 294 294 293 294 294 294 295 296 296 295 294 293 293 293 294 294 294 294 294 294 294 292 292 292 291 291 290 290 290 290 290 290 289 289 288 287 286 284 284 283 282 282 282 280 280 281 280 279 277 276 276 275 275 275 274 274 274 274 275 275 275 276 276 277 278 278 279 279 280 280 281 282 284 287 292 295 296
295 296 297 297 297 297 296 296 295 294 294 293 293 293 293 293 295 296 295 293 293 293 293 293 292 293 293 293 293 293 292 292 291 291 291 290 290 290 290 289 289 288 288 287 286 285 284 283 282 282 281 280 279 279 279 279 278 276 275 274 274 274 274 273 274 274 274 274 274 275 275 276 277 277 278 279 279 279 280 280 282 283 284 288 293 295
295 296 297 296 296 296 295 295 295 293 293 293 293 293 293 293 293 294 294 293 293 293 293 292 292 292 292 293 293 293 292 292 291 291 291 290 290 290 290 289 289 288 287 286 285 284 283 282 281 281 280 279 279 278 277 278 277 275 274 273 273 273 273 273 273 273 273 273 273 274 274 275 276 277 277 278 278 279 279 280 280 281 282 285 289 292
296 297 296 295 296 297 295 295 294 294 294 294 294 294 294 293 293 293 293 293 293 293 293 292 292 292 293 293 293 292 292 291 291 290 290 290 290 290 289 289 288 287 286 285 284 283 282 281 281 280 280 279 278 277 276 276 276 274 273 273 272 272 272 272 272 272 272 272 273 273 273 274 275 276 277 277 278 279 279 279 280 280 281 283 285 288
295 296 296 295 297 298 296 296 295 294 294 294 294 294 294 293 293 293 293 294 294 294 293 293 293 293 293 293 292 292 291 291 291 290 290 290 290 289 289 288 287 286 285 283 283 282 281 280 280 279 279 278 277 276 276 275 274 273 273 272 272 271 271 271 271 271 271 272 272 272 273 273 274 275 276 277 278 278 279 279 279 280 280 281 283 285
295 295 295 296 297 297 295 294 293 292 293 294 294 294 294 294 293 293 293 293 293 293 293 294 294 293 293 292 291 291 291 291 290 290 290 290 290 289 289 288 286 285 284 282 282 281 280 280 279 278 278 277 276 276 275 274 273 272 272 272 271 271 270 270 270 271 271 271 271 272 272 273 273 274 276 277 278 278 278 279 279 279 280 281 282 284
295 295 295 296 296 295 293 292 292 293 295 296 295 295 294 293 293 293 293 293 293 293 293 293 293 292 292 291 291 291 291 290 290 290 290 289 289 289 288 286 285 283 282 282 281 280 279 279 278 278 277 276 276 275 274 274 273 272 271 271 270 270 270 270 270 270 270 271 271 271 272 272 273 274 275 277 278 278 279 279 279 279 280 281 282 284
296 296 295 296 296 295 293 292 294 296 296 294 293 294 294 293 292 292 292 292 292 292 292 292 291 291 291 291 291 291 290 291 290 290 289 289 289 288 286 285 284 282 281 280 280 279 279 278 277 277 276 275 275 274 274 274 273 271 271 270 270 269 269 269 269 270 270 270 270 271 271 272 273 274 274 276 277 278 279 279 279 279 280 281 283 284
296 296 295 296 295 295 294 294 296 297 294 291 291 292 291 291 291 291 291 292 291 291 291 291 291 291 291 291 291 291 290 290 289 289 289 289 287 286 285 283 282 281 280 279 279 278 278 277 276 276 275 274 274 273 273 273 272 271 270 270 269 269 269 269 269 269 269 270 270 271 271 271 272 273 273 274 275 277 279 279 280 280 280 281 283 285
296 296 295 295 295 295 294 294 296 296 295 294 294 293 292 291 292 292 292 292 291 291 291 291 291 291 291 290 290 290 290 289 289 290 289 288 286 285 284 282 281 280 279 279 278 277 276 276 275 274 274 273 273 272 272 271 271 270 270 269 269 268 268 268 268 269 269 269 270 270 270 271 271 271 272 272 274 276 278 279 280 280 280 281 283 286
295 295 295 295 295 295 294 294 295 295 296 296 294 294 293 292 291 291 291 291 292 291 291 291 291 290 290 290 290 290 289 289 289 290 289 287 285 283 282 282 281 279 278 278 277 276 275 274 274 273 273 272 272 271 271 270 270 269 269 269 268 268 268 268 268 268 268 268 269 269 269 270 270 270 271 272 273 275 277 279 280 280 281 282 284 287
294 294 294 294 295 295 295 295 295 295 296 295 292 292 291 291 291 291 290 291 292 292 291 291 290 290 290 290 290 289 289 289 289 290 289 286 283 282 281 280 280 278 277 276 276 275 274 273 273 272 271 271 271 271 270 269 269 268 268 268 268 267 267 267 267 267 267 268 268 268 268 269 269 270 270 271 272 273 276 279 280 281 282 283 284 287
293 293 293 293 294 295 295 295 295 296 295 293 291 290 290 290 290 290 291 292 291 291 291 290 290 290 290 290 289 288 288 289 289 289 287 284 282 282 280 279 278 277 276 275 274 274 273 272 271 271 270 270 270 270 269 268 268 268 268 268 267 267 267 266 266 266 267 267 267 268 268 268 269 269 270 270 271 272 274 277 280 281 282 283 284 287
292 293 293 293 293 294 295 295 295 295 294 292 290 289 290 290 290 290 291 292 290 290 291 290 290 290 290 289 289 288 289 289 288 286 284 283 281 280 280 278 277 276 275 274 274 273 272 271 270 270 269 269 269 269 268 268 267 267 267 267 267 267 266 266 266 266 266 267 267 267 268 268 268 269 269 270 271 272 273 276 280 282 282 283 285 289
292 292 293 293 293 293 294 295 294 294 294 292 290 290 290 290 291 292 292 291 290 291 291 291 290 290 289 288 288 288 288 287 285 284 282 281 280 279 278 277 276 275 274 273 272 271 270 269 269 269 268 268 268 268 267 267 267 267 267 266 266 266 265 265 265 265 266 266 266 267 267 268 268 269 269 270 271 272 273 276 280 282 283 284 286 289
293 292 292 293 293 293 293 294 294 294 295 293 291 290 290 291 292 292 292 292 292 291 291 290 290 289 288 287 287 286 285 284 283 282 281 280 279 277 276 276 275 274 273 272 271 270 269 268 268 268 268 267 267 267 267 266 266 266 266 265 265 265 264 265 265 265 265 265 266 267 267 268 268 269 270 270 271 272 274 277 280 283 285 285 286 288
294 293 293 293 293 293 293 294 294 293 293 292 291 291 291 291 292 292 292 292 292 291 290 290 290 288 286 285 285 284 283 282 282 281 280 278 277 276 275 274 273 273 272 271 270 269 268 267 267 267 267 267 267 266 266 266 266 265 265 264 264 264 264 264 264 264 265 265 266 267 268 269 269 270 270 271 272 273 275 278 282 284 286 286 287 288
295 294 294 294 294 294 294 294 293 293 292 292 292 292 292 292 293 292 291 291 291 291 289 289 289 286 284 283 282 282 281 281 281 280 278 276 275 274 273 273 272 271 270 269 269 268 267 267 266 266 266 266 266 266 266 265 265 264 264 264 263 263 263 263 264 264 264 265 266 268 269 270 271 271 272 272 273 274 276 279 284 286 286 287 288 288
294 293 293 294 294 294 294 293 293 292 292 292 292 292 292 293 293 292 291 291 291 289 288 287 287 284 282 280 280 280 280 280 279 278 276 275 273 273 272 272 271 270 269 268 267 267 266 266 265 265 265 265 265 265 265 265 264 264 263 263 263 263 263 263 263 264 264 265 267 269 272 273 274 274 275 275 275 276 278 282 285 287 288 288 289 290
293 293 293 294 294 294 294 293 292 292 292 292 292 292 292 291 291 291 290 290 289 287 285 284 283 282 280 278 278 279 279 278 277 275 274 273 272 272 271 271 270 269 268 267 267 266 265 265 265 264 264 264 264 264 264 264 263 263 262 262 262 262 262 262 263 264 264 266 268 271 273 274 275 276 277 278 278 280 282 285 287 288 289 289 290 290
294 293 293 293 294 294 294 293 292 292 292 292 292 292 291 291 290 289 289 288 286 284 282 281 280 279 278 278 277 277 277 276 274 273 272 271 271 271 270 269 268 267 267 266 266 265 265 264 264 264 264 264 264 264 263 263 262 262 261 261 261 261 261 262 263 263 264 267 269 271 272 273 274 276 278 279 281 283 285 287 288 289 289 289 290 291
294 294 293 292 293 293 293 293 293 292 292 292 292 292 292 292 290 288 286 285 283 282 280 279 278 278 278 277 276 275 275 274 272 271 271 270 270 270 269 268 267 266 266 266 265 264 264 263 263 263 263 263 263 263 262 262 261 261 261 261 261 261 261 261 262 263 265 267 269 271 271 272 273 274 276 278 281 284 286 288 289 290 290 290 290 291
293 294 293 293 293 293 293 293 293 293 292 292 292 292 292 292 290 287 285 283 282 281 280 279 278 277 276 275 274 273 272 272 271 270 270 269 269 268 268 267 266 266 266 265 264 264 263 263 262 262 262 262 262 262 261 261 260 260 260 260 260 260 260 261 262 264 265 267 269 270 270 271 271 272 274 276 279 282 286 288 289 290 291 291 291 291
293 294 294 293 293 293 293 293 293 293 293 292 293 292 291 290 289 288 286 284 283 281 280 279 279 277 275 273 272 271 270 270 270 270 269 268 268 267 266 266 265 265 265 264 264 263 262 262 262 262 262 261 261 261 260 260 259 259 259 259 259 260 260 260 262 264 265 267 268 269 269 270 270 271 273 274 276 280 284 288 290 291 291 291 292 292
Wind_Speed
1 5 5 2 4 5 5 3 4 5 5 7 8 7 9 9 7 6 4 5 6 5 6 9 12 12 15 5 10 10 9 10 8 7 5 4 4 4 5 7 7 8 9 10 14 16 16 17 17 18 19 20 22 23 25 24 24 26 27 28 29 30 31 31 31 29 27 28 28 28 26 27 27 25 27 29 30 31 33 35 34 35 36 37 37 39
1 6 2 3 4 5 4 3 4 5 7 7 7 8 8 8 7 7 3 4 4 5 6 10 12 14 14 2 12 10 9 9 7 6 6 5 5 5 5 6 7 7 8 10 13 15 17 18 20 20 20 23 24 25 26 24 25 26 25 26 27 29 30 31 32 31 28 27 27 28 28 28 27 25 24 26 29 31 34 34 34 33 32 36 39 38
5 4 2 4 3 2 3 3 4 6 7 7 6 6 7 6 8 5 2 3 5 7 7 9 11 14 6 9 12 8 9 8 6 6 6 5 5 5 6 6 8 9 9 11 12 15 19 21 22 22 22 24 25 26 26 26 27 26 24 25 27 28 28 29 31 31 31 30 28 28 29 28 27 26 24 24 26 28 31 32 33 33 30 32 38 39
7 2 4 2 1 2 4 3 5 7 7 7 5 6 7 6 7 3 0 7 11 6 5 9 10 9 2 11 8 7 9 7 6 6 6 4 4 5 6 7 9 11 11 12 12 14 19 21 21 22 23 25 26 27 27 27 28 26 26 28 29 29 29 28 30 31 32 33 31 29 28 28 27 27 24 22 21 24 31 34 34 34 30 30 33 37
9 3 4 1 2 2 5 5 6 6 6 6 4 4 6 6 7 7 8 13 11 1 4 8 11 5 7 11 8 7 7 7 6 5 5 4 4 5 6 8 9 11 11 12 13 14 18 21 23 24 25 26 26 27 28 29 30 29 30 31 31 31 30 30 29 31 32 33 32 30 29 28 27 27 25 22 21 26 31 34 35 35 34 33 32 33
7 2 2 2 2 2 5 7 4 2 6 7 1 2 5 6 8 10 12 12 9 2 5 9 9 4 5 11 10 9 8 8 6 3 4 3 5 6 7 8 9 10 10 11 13 16 20 23 25 27 28 28 28 29 30 31 32 33 34 34 34 33 32 32 30 31 32 31 31 30 29 27 26 26 24 22 23 25 26 29 33 34 34 34 31 33
2 2 1 1 2 4 6 6 1 2 6 6 2 2 4 6 8 10 12 10 6 7 6 6 6 6 5 7 11 12 11 10 7 3 4 4 5 6 8 9 9 11 11 12 14 18 21 24 26 27 29 30 31 33 33 33 34 36 37 37 37 36 34 34 32 32 32 31 31 31 30 28 27 26 23 23 23 22 24 27 31 32 31 33 31 31
2 1 1 1 3 5 6 5 1 2 5 3 3 3 5 7 9 10 10 7 7 10 10 6 8 8 8 6 10 13 11 10 6 2 4 4 5 8 10 10 11 13 13 13 15 18 21 24 27 28 30 31 32 34 34 34 36 37 39 40 39 38 37 36 35 34 33 33 32 32 31 29 29 28 26 26 24 22 25 28 30 31 30 31 31 29
2 1 1 1 3 4 4 2 3 0 4 2 5 4 5 7 9 8 8 8 8 9 8 6 6 6 7 3 10 11 10 9 4 2 3 5 8 10 11 12 13 14 14 14 15 19 22 25 28 29 32 33 33 34 34 34 37 39 41 41 40 40 40 40 40 36 33 34 34 33 32 30 30 30 29 28 25 22 22 25 29 31 29 29 31 31
2 2 2 1 3 4 2 4 3 0 2 3 4 6 7 8 8 8 7 8 7 6 9 9 7 6 7 4 7 8 9 7 1 3 4 7 9 11 12 13 14 15 14 14 16 19 24 27 30 31 33 34 34 33 34 36 41 44 43 40 40 41 40 41 42 39 36 35 34 34 33 32 31 31 31 30 28 23 18 19 26 30 30 29 31 33
0 2 0 1 3 2 2 3 2 1 3 4 5 7 7 7 7 7 6 6 6 6 6 6 8 6 6 4 5 4 3 3 1 3 4 8 10 11 12 13 15 15 13 14 16 20 26 30 31 32 33 34 35 34 35 40 43 43 41 40 39 40 40 41 41 41 40 37 36 35 34 34 33 31 30 30 29 26 20 16 20 26 29 30 30 31
3 3 2 1 1 1 2 3 2 2 5 5 5 5 6 6 6 5 4 2 5 6 1 5 4 5 7 4 1 4 5 5 2 4 5 8 11 12 13 14 15 14 14 16 16 18 23 26 29 32 33 35 37 38 40 43 44 41 40 40 39 40 41 40 40 41 41 39 37 36 35 34 35 33 30 29 30 28 23 17 17 23 26 28 29 28
3 4 3 3 1 3 3 4 3 4 5 5 4 3 5 6 5 4 3 3 6 5 3 7 3 4 10 9 4 7 7 4 3 5 6 9 12 14 15 15 14 13 14 16 16 18 19 20 25 31 33 36 38 41 44 45 44 42 41 41 41 42 42 41 42 41 40 40 38 37 36 35 34 34 31 29 29 29 25 18 18 23 24 24 27 26
3 2 5 4 2 3 5 4 3 3 3 3 2 2 3 5 5 6 5 5 7 4 4 4 4 6 8 10 7 9 8 5 5 6 6 10 13 14 15 15 14 14 15 15 16 18 18 19 26 30 33 36 39 43 46 45 44 42 40 41 43 43 41 42 43 42 40 40 38 36 36 35 34 34 32 30 29 30 27 19 18 23 23 22 24 24
6 3 4 4 2 3 5 3 3 2 1 1 1 1 3 4 4 6 5 6 7 7 4 2 3 5 5 3 6 10 7 5 4 6 7 10 12 13 13 14 14 14 15 15 17 19 20 24 30 31 34 38 41 44 44 42 43 40 37 39 41 40 40 44 45 45 46 45 42 40 38 36 35 33 33 31 29 29 29 23 19 21 23 22 22 24
7 6 3 2 1 2 3 1 2 2 1 2 1 0 2 2 4 5 6 7 7 9 8 4 3 4 3 4 11 9 5 3 3 6 8 12 13 13 13 13 14 14 14 16 17 19 22 27 31 32 34 36 38 42 43 42 41 37 37 39 39 38 40 44 45 43 45 47 48 49 46 40 36 35 34 32 29 29 30 28 21 19 23 24 22 23
5 4 5 4 0 2 0 1 1 2 1 2 2 2 1 3 2 5 8 4 2 7 7 5 5 7 4 4 9 8 4 2 4 8 10 13 14 14 13 12 13 14 15 17 17 18 21 25 30 33 34 33 34 38 42 44 39 33 37 40 41 42 40 40 42 41 41 44 46 47 47 43 37 35 34 32 31 31 31 31 25 19 22 26 22 22
2 3 4 5 2 2 1 2 1 2 2 1 2 1 3 3 1 2 4 3 3 9 7 4 8 8 6 3 6 8 3 3 7 10 12 14 15 14 13 13 15 16 17 19 19 19 21 25 30 33 34 35 36 40 42 42 37 33 38 41 41 43 40 34 38 41 43 43 40 36 37 40 39 35 34 32 31 31 30 31 28 21 21 25 24 22
1 3 2 2 1 3 1 2 3 2 1 1 0 0 1 2 2 3 3 3 6 8 7 6 8 7 7 4 4 6 3 7 9 11 14 16 15 14 14 16 18 18 18 19 19 19 20 24 31 35 38 40 40 42 41 39 37 35 40 43 41 42 41 38 38 40 41 40 40 38 33 35 37 35 34 33 31 30 29 31 31 24 19 22 24 23
1 3 2 1 2 3 2 4 6 5 3 3 0 1 1 1 3 3 2 1 5 7 7 8 8 4 4 2 4 2 6 8 9 12 14 15 15 14 15 16 18 19 18 18 19 20 21 25 32 35 38 41 40 39 38 39 41 39 39 43 42 41 42 42 40 39 39 39 41 43 39 37 38 36 33 33 31 31 30 30 32 27 21 22 24 22
2 4 3 1 2 2 3 4 5 5 5 5 5 5 3 3 2 3 3 2 3 6 6 7 9 5 3 4 1 4 7 5 8 14 14 14 15 15 16 17 18 18 19 19 20 21 22 25 32 35 36 37 37 37 37 38 40 39 38 40 41 41 41 41 40 37 38 39 38 39 39 40 42 41 38 35 33 32 31 30 31 28 24 25 24 22
2 3 3 2 3 5 4 1 1 3 2 5 6 6 6 6 5 4 5 3 2 4 5 6 11 8 3 2 3 5 3 4 10 15 13 14 17 16 16 18 19 19 19 20 21 21 20 24 31 35 36 35 35 36 37 38 39 37 38 40 40 40 39 39 40 37 36 38 37 36 35 37 39 40 40 40 36 33 31 29 30 29 26 25 24 22
0 0 3 5 4 4 2 2 2 4 3 3 5 5 5 6 7 6 6 3 2 6 6 5 11 8 4 4 2 1 2 6 11 13 13 14 15 15 18 20 19 19 20 21 21 19 20 26 31 32 33 35 35 35 36 38 38 37 38 40 39 40 40 39 40 39 37 36 37 37 36 35 35 35 37 39 40 37 33 29 29 29 27 25 25 24
1 1 3 6 3 3 3 1 0 0 2 4 5 7 6 6 7 7 5 2 2 7 6 4 11 7 5 6 3 4 4 9 11 12 14 13 13 15 19 20 19 20 20 21 20 19 22 29 31 29 30 33 33 34 36 37 38 39 41 40 39 40 41 39 39 40 39 37 37 38 36 34 33 34 34 35 36 38 37 32 29 30 28 25 25 25
3 3 3 3 4 3 3 3 3 4 5 5 6 8 8 8 7 4 2 1 3 7 8 7 11 9 1 4 5 5 9 13 13 13 13 12 13 15 17 18 19 19 20 20 20 20 23 25 24 25 29 32 32 33 36 38 40 42 42 40 40 40 40 39 38 39 40 38 37 37 36 35 33 32 32 32 33 35 36 34 29 29 30 26 25 26
3 3 4 5 6 7 5 3 2 4 5 5 6 10 11 11 11 6 2 5 6 7 10 11 11 11 7 6 9 12 13 15 14 14 12 12 14 16 16 16 17 18 19 20 20 21 21 21 21 25 29 31 33 33 35 38 41 42 41 40 40 40 39 39 38 38 38 38 37 36 36 35 32 30 30 30 32 34 36 36 33 31 29 27 26 25
2 3 6 10 11 10 7 3 2 5 5 6 8 13 13 13 13 8 4 7 8 7 11 13 12 15 15 14 16 15 14 15 14 13 12 13 15 16 16 17 17 18 17 18 19 20 21 21 21 25 29 31 33 33 36 40 42 42 42 41 40 39 39 39 38 38 38 37 37 37 36 34 33 31 31 30 29 31 33 37 41 39 34 28 26 25
1 4 8 13 15 13 10 7 2 6 7 9 10 13 15 14 13 11 10 10 7 6 12 11 11 15 16 16 16 14 14 15 13 12 13 14 15 16 17 18 20 20 18 18 20 21 22 23 21 23 29 33 33 36 40 43 42 42 42 41 41 40 38 38 37 37 37 36 37 37 37 36 34 32 32 32 31 30 30 33 37 37 35 32 29 25
2 5 7 10 14 14 12 11 7 6 9 11 11 13 15 16 15 16 17 15 11 11 13 12 13 17 16 16 17 15 14 13 11 12 13 14 16 18 19 20 20 19 20 21 22 21 21 22 21 22 28 31 33 37 41 43 42 41 42 42 41 39 37 37 38 37 36 36 36 37 37 38 37 33 33 33 32 32 30 30 32 33 33 34 31 24
2 4 4 7 12 13 12 12 10 10 12 12 14 16 15 16 18 19 20 20 19 20 19 18 21 21 17 16 18 14 11 10 9 11 14 15 17 19 20 21 19 19 21 21 21 21 21 22 22 23 27 31 34 36 37 41 44 42 42 42 41 40 38 37 38 37 37 37 36 37 37 38 38 37 35 33 33 33 31 31 31 32 33 33 31 25
3 1 2 3 8 10 10 11 11 12 14 15 17 17 16 17 19 20 19 19 19 21 22 22 22 19 15 15 14 11 9 9 10 13 15 15 17 19 20 19 18 19 20 20 20 21 21 22 23 23 26 30 35 36 35 39 44 42 41 41 40 40 40 39 38 38 37 37 37 37 38 38 38 38 37 35 33 33 33 32 31 32 32 33 33 30
4 2 2 1 6 7 6 9 11 11 13 18 21 18 17 18 18 17 17 16 16 18 20 19 16 13 11 10 10 9 9 10 11 13 14 13 16 19 18 17 17 19 20 19 19 20 21 23 23 23 26 31 35 36 36 40 43 42 41 42 41 41 41 39 39 39 38 38 38 38 37 37 38 37 37 35 33 33 33 33 32 32 32 32 33 32
5 4 2 3 4 4 1 3 4 6 9 14 13 15 19 21 20 17 15 16 17 16 14 12 11 10 9 8 10 11 10 10 11 11 11 13 16 17 16 15 16 18 19 18 19 20 20 21 23 25 29 32 34 36 37 41 42 41 41 42 42 43 42 40 38 38 39 38 37 37 37 36 37 36 35 34 34 33 33 33 33 32 30 31 32 31
7 5 3 4 3 1 3 3 1 6 9 6 3 14 22 21 20 18 15 15 16 15 13 11 11 11 11 10 11 12 10 10 10 10 11 13 13 12 13 15 16 17 18 18 19 19 19 21 26 30 32 33 34 36 39 42 42 41 41 40 40 41 41 40 38 36 37 37 37 37 36 36 36 35 33 34 34 33 32 32 32 30 29 29 30 30
7 6 4 4 3 1 2 2 3 8 7 2 3 7 12 11 11 12 12 13 14 14 16 15 14 14 13 11 10 10 11 11 10 11 14 12 8 7 10 14 16 16 17 17 18 19 21 24 29 31 33 35 35 36 40 44 42 41 40 40 41 41 39 38 37 36 37 37 37 37 35 35 36 34 33 33 34 33 31 29 30 30 29 29 29 29
7 6 4 3 3 1 2 5 6 5 3 2 2 2 4 4 6 7 9 12 13 15 15 14 15 15 11 9 9 9 11 11 9 11 11 4 3 6 10 13 15 15 16 17 19 20 24 28 30 32 33 34 35 36 39 42 41 41 42 41 39 39 39 38 36 36 36 36 36 36 34 34 35 34 34 33 33 33 31 28 29 30 28 28 29 29
7 6 4 3 4 3 3 7 7 8 10 9 8 8 8 7 7 6 7 7 8 11 13 12 13 12 8 8 8 9 10 9 9 7 1 5 4 8 10 11 13 15 17 19 22 24 26 28 30 32 33 34 35 36 38 41 42 41 40 38 37 37 37 35 35 35 35 35 36 36 35 34 34 35 36 33 32 32 31 28 28 28 26 27 30 29
7 6 5 4 4 3 3 6 8 10 11 7 4 5 6 5 4 2 4 5 7 11 13 11 10 8 6 7 7 7 7 8 8 5 3 6 7 9 10 11 13 15 18 21 24 26 28 29 31 32 33 34 35 35 38 42 43 40 37 37 38 39 37 34 35 35 35 36 37 37 36 35 35 35 35 34 32 32 32 31 29 26 25 26 28 29
5 5 5 5 6 5 6 7 8 8 6 1 5 7 9 8 7 4 4 6 6 10 10 8 7 6 6 6 5 4 5 7 7 6 6 9 10 10 10 12 14 17 20 22 23 26 29 31 32 33 33 33 34 36 40 42 40 37 36 36 37 37 35 34 35 36 36 38 38 37 36 35 35 34 34 34 34 32 33 31 27 25 26 26 27 28
5 5 6 8 9 8 9 8 7 7 4 2 7 9 9 8 7 2 5 4 5 8 8 7 6 6 5 4 3 3 4 6 8 8 10 12 12 11 12 13 15 19 23 24 25 28 30 31 32 33 33 33 35 38 41 41 38 35 35 35 36 36 35 36 38 39 40 40 39 38 37 35 34 35 34 34 34 33 33 31 26 24 24 26 28 29
6 6 7 9 10 10 11 9 7 7 4 5 8 10 9 7 4 4 5 2 7 7 6 7 7 6 4 4 4 4 5 6 8 10 11 12 12 13 14 16 17 19 21 22 25 28 30 31 31 32 33 33 35 37 39 38 36 35 36 36 36 38 40 41 42 41 40 40 39 38 38 37 36 35 35 35 34 33 33 32 28 25 23 24 27 26
7 7 7 8 9 9 9 8 8 8 6 9 11 11 10 5 4 5 2 5 7 7 6 7 6 4 4 5 4 4 6 7 8 10 10 11 11 12 14 18 19 20 20 21 22 24 26 28 30 32 35 35 34 36 37 35 35 36 36 35 35 40 44 44 44 43 42 42 41 39 38 38 37 35 33 32 31 30 31 31 29 26 23 23 24 22
8 7 6 8 8 6 7 8 7 6 6 12 12 8 7 6 5 3 3 5 6 5 4 5 5 4 4 4 3 5 7 7 8 9 9 9 9 10 13 16 17 20 22 22 23 25 27 28 28 31 35 36 35 35 35 34 33 34 35 35 39 44 45 44 44 44 43 41 40 40 39 39 38 35 31 29 29 28 29 30 27 24 22 21 21 19
8 7 4 6 7 6 7 9 6 1 6 13 12 7 9 11 6 2 3 3 3 4 3 3 3 4 4 3 3 5 7 7 7 8 8 8 8 9 11 14 16 19 21 22 23 26 27 28 30 32 35 35 35 35 34 32 31 33 35 37 42 46 45 45 46 47 43 41 42 45 45 42 39 35 30 27 27 26 27 28 26 22 20 19 19 17
8 7 2 3 7 6 5 5 2 3 6 11 9 5 8 10 5 4 4 2 1 3 3 2 3 4 5 3 2 4 6 6 6 6 7 7 8 8 10 12 15 18 20 21 23 25 26 27 30 33 35 36 36 35 34 32 31 34 37 40 43 45 45 46 48 47 44 42 43 46 46 42 37 34 31 27 25 23 24 24 22 20 19 18 17 15
4 4 1 1 5 6 7 5 3 3 5 9 8 3 3 4 3 4 3 3 2 3 3 2 3 4 5 4 2 3 5 5 5 6 6 6 7 8 9 12 14 16 19 21 23 24 26 28 29 30 33 36 36 35 35 34 31 32 37 40 43 45 45 46 46 44 42 43 43 42 40 36 33 32 32 28 22 21 22 21 19 18 17 15 14 13
5 5 3 4 5 5 5 5 8 8 8 8 8 5 2 2 2 3 3 3 3 5 4 4 4 5 5 5 3 5 6 5 5 6 5 5 6 8 9 11 14 16 18 20 22 25 26 26 27 29 32 35 35 35 35 35 32 32 36 39 42 46 48 45 41 41 43 46 43 38 34 33 33 32 28 23 18 17 19 20 19 18 16 14 12 11
7 8 5 7 9 7 5 3 5 6 6 6 7 6 4 4 4 4 4 3 5 6 5 5 5 5 5 5 4 5 5 4 4 5 5 5 6 7 8 11 15 16 18 19 21 24 25 24 26 29 31 32 34 34 35 35 35 36 37 38 43 47 46 42 40 42 47 46 38 31 30 32 33 31 25 21 18 16 17 17 17 17 16 16 15 11
7 8 6 6 8 8 7 7 5 3 4 6 9 8 5 5 6 6 5 5 6 6 6 6 5 5 5 4 4 3 4 4 3 4 5 5 5 6 9 12 15 17 18 19 20 22 23 25 27 28 30 31 33 33 34 35 37 39 38 39 45 48 44 42 42 42 42 38 32 30 33 33 32 30 27 25 22 19 18 19 18 18 18 20 20 18
7 7 6 5 7 7 7 9 8 5 5 7 9 9 6 5 7 7 7 6 7 7 8 7 6 5 5 4 4 3 4 4 3 3 4 4 5 7 10 13 15 16 18 19 20 21 22 24 26 28 29 31 31 33 34 35 38 41 39 41 48 48 43 41 41 37 35 33 31 32 34 32 32 31 28 26 25 22 21 22 22 22 22 22 22 22
7 9 8 6 7 7 7 7 7 6 5 4 4 5 5 5 7 7 7 8 8 8 8 7 6 5 4 4 5 5 5 4 3 3 3 4 6 8 10 12 14 16 18 19 19 20 22 24 25 26 28 30 32 33 34 36 40 42 42 46 52 50 46 43 38 32 32 32 32 34 35 32 31 31 29 27 26 23 22 21 19 20 22 23 24 23
Wind_Direction
348 296 286 311 341 343 333 321 306 302 294 286 284 279 280 286 285 292 307 101 76 333 285 297 304 303 307 296 141 133 121 116 116 115 97 84 67 36 28 13 3 354 351 347 345 349 346 343 343 341 343 341 339 340 337 335 336 338 336 333 332 331 330 328 325 322 322 325 325 324 323 319 315 314 317 315 310 305 305 304 299 290 270 254 244 236
256 287 312 56 357 334 317 296 299 291 285 285 281 287 291 289 304 318 317 110 57 331 293 302 308 304 303 210 143 141 128 119 112 103 88 66 49 33 18 4 355 350 348 345 346 348 347 347 346 343 342 340 338 337 334 332 332 331 330 329 327 325 323 321 320 318 314 315 319 319 317 314 312 310 312 313 312 308 307 305 302 299 285 267 255 241
294 290 76 57 7 304 260 256 281 282 280 283 284 290 291 313 336 322 137 89 339 309 303 314 311 305 300 141 147 147 126 114 104 92 77 56 42 24 12 3 353 354 353 347 346 346 347 348 346 343 339 337 336 332 330 328 327 326 324 324 322 319 316 313 313 312 311 309 309 311 310 309 308 307 307 307 311 313 313 313 310 306 302 286 268 249
297 326 75 57 105 237 255 246 270 280 277 276 283 289 292 334 351 309 150 340 320 309 320 316 302 300 126 134 144 139 127 121 120 107 98 81 44 24 14 7 359 357 350 344 344 344 346 345 342 340 336 335 333 329 328 327 325 322 319 319 317 315 311 306 305 305 307 306 303 304 305 305 306 304 302 303 311 320 320 320 316 310 309 304 286 261
277 319 64 118 165 265 282 276 276 285 292 288 280 286 302 336 333 301 310 320 312 316 47 340 308 289 152 160 163 143 144 142 138 119 111 103 48 31 15 9 0 353 346 341 344 344 345 343 339 335 333 333 329 326 327 326 324 320 316 315 313 311 308 304 302 301 303 304 301 302 303 304 307 308 308 309 318 325 325 322 318 314 312 310 302 282
275 335 72 190 216 269 289 288 299 328 296 297 45 40 342 331 314 308 317 325 316 285 53 18 326 290 174 185 172 155 169 160 154 151 113 73 39 30 8 3 353 347 345 342 347 348 344 339 334 331 331 331 328 327 326 323 321 318 316 313 310 309 306 303 301 300 300 300 300 300 300 302 305 307 308 311 315 317 318 319 317 314 312 311 309 301
281 61 85 265 274 282 285 280 314 45 295 296 61 32 343 313 307 316 320 326 316 294 332 358 294 277 275 226 172 162 179 169 160 147 100 49 33 22 359 355 350 348 348 348 351 347 340 335 330 328 329 330 327 326 325 322 320 318 316 312 309 307 304 301 300 300 298 297 297 297 296 296 297 297 298 302 301 301 307 314 317 315 311 311 310 308
125 136 208 276 289 280 284 280 34 28 290 306 39 344 328 316 305 311 311 302 297 300 301 277 246 258 284 255 167 163 179 176 171 130 73 44 18 5 356 354 352 351 351 351 349 341 335 332 329 326 325 325 325 324 322 319 317 316 314 311 308 305 303 302 298 296 296 295 294 295 294 292 290 289 291 298 294 292 304 312 318 318 311 309 309 310
63 352 247 291 284 277 294 352 60 354 259 336 21 324 298 294 284 286 291 289 297 303 291 261 225 239 273 235 158 171 197 195 179 66 41 24 8 359 356 353 351 352 351 347 340 334 330 328 326 324 322 322 323 322 319 318 318 316 312 308 306 304 303 302 299 294 292 293 292 292 292 289 288 287 287 293 294 288 297 308 317 321 315 310 306 304
38 42 19 316 276 281 5 64 59 325 257 339 338 284 259 253 258 265 271 289 301 287 273 257 215 230 275 249 180 193 214 215 219 25 19 9 4 358 353 351 350 350 346 339 334 328 326 325 324 322 321 321 321 318 316 315 315 313 311 307 304 304 303 303 302 299 294 293 291 289 289 287 287 287 285 287 291 289 288 301 314 320 317 314 309 300
145 93 172 254 280 309 67 80 54 335 295 305 290 276 271 260 262 265 263 287 292 270 265 232 197 227 273 261 226 216 176 149 350 339 358 360 356 354 352 351 349 344 338 334 329 324 323 322 322 322 322 320 317 316 314 314 312 309 310 308 304 304 304 303 303 301 297 293 290 288 286 286 285 284 282 282 285 288 288 294 308 316 317 315 312 305
209 206 198 143 294 305 157 206 221 234 270 278 266 289 305 294 287 273 244 230 253 264 271 124 149 234 246 246 187 131 109 101 48 344 351 352 349 352 353 349 344 336 332 331 326 322 322 320 321 322 321 318 318 317 315 315 315 312 310 309 306 306 306 305 303 301 298 294 290 287 285 284 284 282 279 278 280 284 286 287 299 310 313 315 313 309
222 204 142 101 189 216 207 219 208 214 238 248 256 304 319 308 306 277 240 230 250 258 129 114 81 264 247 262 244 153 130 116 68 22 2 355 350 351 349 341 335 332 331 330 324 322 321 320 322 321 320 320 320 319 318 317 317 316 313 310 308 308 307 307 305 301 297 294 290 287 286 285 284 283 279 276 276 278 279 280 289 301 307 309 311 309
270 143 138 149 165 187 218 235 239 219 206 225 256 322 303 301 306 286 283 281 268 257 139 103 0 295 268 274 236 169 135 108 59 29 8 360 352 347 342 333 329 330 330 328 324 322 321 319 321 320 320 321 319 320 323 320 318 316 314 311 309 308 310 311 309 306 302 300 295 287 285 285 283 282 279 274 273 275 276 274 278 292 298 299 304 306
268 269 166 172 150 158 202 239 320 335 115 174 9 341 265 257 265 279 304 303 293 297 275 271 311 279 301 4 126 135 130 114 49 18 3 356 348 341 334 328 329 329 328 327 323 320 320 321 323 322 322 322 320 320 320 318 317 315 313 313 312 314 319 316 311 308 307 304 300 295 291 287 283 280 279 274 272 273 274 272 270 280 290 292 297 302
246 254 123 106 5 165 187 178 346 309 204 144 89 206 241 251 254 269 297 297 302 305 281 230 222 252 286 97 118 128 150 146 19 358 354 346 341 336 330 328 329 328 327 325 322 320 321 321 321 321 322 321 319 317 316 316 314 314 317 320 319 321 325 319 311 307 307 303 298 295 292 290 285 279 278 274 270 271 271 272 268 266 281 289 293 300
254 253 120 123 37 87 65 344 323 296 265 154 165 195 100 48 330 273 286 300 297 287 269 201 238 267 258 168 142 146 168 195 331 346 348 339 335 332 329 329 328 327 326 322 320 320 321 320 319 319 319 317 314 314 315 317 318 321 325 323 319 316 314 314 313 310 309 305 296 289 286 288 288 281 278 275 270 271 271 271 268 260 272 286 290 296
269 268 163 162 163 93 356 301 179 314 309 206 197 168 99 82 71 235 271 303 266 269 265 229 258 271 270 256 161 166 194 321 330 342 341 332 334 332 329 329 327 327 325 321 321 320 320 319 319 321 321 319 321 321 321 321 323 326 322 316 315 312 306 309 316 313 310 307 302 293 284 283 287 283 278 277 274 272 271 270 267 260 264 279 287 293
348 265 204 155 128 123 173 243 190 194 1 50 318 352 127 228 226 182 205 277 271 272 280 273 275 264 250 255 159 179 280 336 332 336 334 330 335 333 330 330 327 328 325 323 324 324 323 324 324 326 325 324 324 324 325 324 320 318 317 315 316 314 310 311 315 312 308 309 311 307 295 288 290 287 280 277 276 273 270 269 267 261 257 269 281 289
101 237 230 34 58 120 171 222 212 198 143 106 161 225 162 243 249 234 218 254 266 277 290 289 295 278 233 194 133 209 325 338 329 332 331 330 334 332 331 330 327 329 327 325 326 324 324 326 326 326 325 324 324 322 324 326 321 318 318 319 317 315 313 312 311 310 308 310 313 311 309 308 305 299 290 282 277 274 271 269 268 262 257 265 275 283
159 219 226 56 67 154 191 210 219 217 178 174 204 205 189 180 206 255 252 198 235 269 279 286 289 277 141 111 105 313 330 335 329 332 329 328 331 331 330 329 328 329 325 325 326 324 323 324 324 324 323 323 325 324 323 322 319 317 317 319 319 316 315 312 309 309 310 309 308 307 310 314 311 307 303 296 287 278 272 270 269 262 260 265 268 276
177 209 223 210 199 207 209 107 346 305 228 199 205 201 207 202 188 230 243 191 160 243 246 268 281 274 166 139 306 317 321 324 329 330 327 326 328 330 329 327 327 326 324 326 324 322 323 322 323 324 323 322 322 323 324 322 320 322 324 324 321 315 313 312 309 310 312 310 305 304 306 309 309 306 304 304 300 290 277 270 268 264 262 264 264 269
44 43 236 238 219 193 177 55 10 323 310 270 241 219 226 214 190 209 233 210 169 232 231 249 273 274 138 147 257 241 253 313 328 327 326 325 325 328 326 325 325 323 323 325 322 321 321 321 323 322 321 323 322 322 325 322 319 324 328 324 319 315 312 312 311 309 310 308 304 303 304 303 306 305 303 303 303 299 291 277 271 269 264 261 262 267
52 112 220 249 251 139 135 136 99 273 251 262 243 217 219 214 198 211 236 278 271 234 216 230 257 261 108 126 185 194 268 313 326 327 326 323 323 326 324 323 325 323 322 323 321 322 322 322 324 323 321 321 322 325 327 323 320 324 327 323 320 317 313 312 312 309 308 308 305 303 302 301 303 304 303 301 298 299 298 289 280 277 271 264 260 265
182 172 170 228 255 218 186 198 200 189 201 229 227 204 200 202 198 210 243 267 260 230 209 222 251 260 92 124 198 237 292 314 322 325 326 323 322 324 323 323 323 323 322 321 320 322 324 323 322 323 324 322 322 324 325 324 325 325 324 322 319 316 314 313 312 309 307 306 303 301 301 300 300 300 300 301 300 299 299 295 289 282 275 265 258 262
197 203 181 197 229 232 231 238 203 183 191 214 217 201 199 200 195 184 190 219 232 231 217 224 249 265 271 260 261 278 298 310 317 321 322 321 320 320 322 321 321 321 319 320 323 324 323 321 320 322 324 324 324 324 323 325 328 325 321 320 318 316 314 312 311 309 306 304 302 301 300 299 299 299 298 298 299 300 299 299 298 294 285 270 260 263
211 246 227 226 236 242 261 304 119 155 185 201 203 201 202 204 197 186 205 224 228 250 246 236 246 266 273 274 276 287 302 307 313 319 319 318 318 319 321 321 321 320 318 321 325 324 320 318 319 321 322 324 326 325 326 328 329 325 321 320 318 316 313 312 311 309 306 304 302 300 300 300 299 298 298 297 296 296 297 297 296 297 296 284 270 265
204 246 233 236 247 254 275 297 175 176 218 224 217 214 211 206 196 196 218 221 208 243 256 246 242 259 271 275 279 292 306 308 314 319 317 317 318 319 322 322 321 320 320 323 326 324 321 318 317 319 322 326 328 326 328 330 328 324 321 319 318 316 313 311 309 307 306 304 302 300 300 301 300 298 297 296 295 293 294 295 292 291 293 292 283 269
228 254 231 233 251 256 264 269 243 229 248 242 234 233 224 212 201 206 222 223 208 226 253 266 267 267 272 276 284 298 306 307 313 315 314 316 317 320 322 320 320 321 322 324 325 322 319 316 314 316 319 323 325 326 329 331 327 323 320 318 317 315 313 311 309 306 306 304 301 300 300 300 299 298 297 295 294 292 290 291 292 291 289 288 286 275
231 259 227 234 259 260 253 256 257 259 262 257 247 240 234 224 217 218 225 225 225 237 252 266 271 272 272 275 284 294 300 305 311 311 313 316 317 320 321 318 319 324 325 323 322 320 317 314 314 316 318 321 323 324 327 329 327 323 319 318 317 314 313 311 308 305 304 302 300 300 300 300 298 296 295 294 292 291 290 289 290 290 287 283 281 279
227 210 152 223 265 262 246 242 249 257 261 264 257 245 237 235 233 233 231 226 231 242 251 257 263 268 268 271 282 291 300 309 309 309 314 317 319 319 317 316 319 323 324 322 320 319 317 315 315 318 320 321 322 323 324 326 325 321 317 317 317 316 314 310 307 304 302 301 300 299 299 298 297 294 291 290 289 289 289 288 286 286 285 282 278 276
216 209 111 167 262 267 246 232 245 264 273 269 261 245 233 232 233 236 232 224 225 234 246 252 254 259 264 273 288 296 302 305 305 312 316 314 315 315 312 314 319 321 321 321 320 319 317 316 317 318 319 319 320 321 323 325 324 320 318 317 315 315 315 311 307 303 301 301 300 299 298 296 296 293 289 286 287 287 286 285 285 282 282 281 276 272
191 205 162 174 248 282 239 191 253 292 286 272 252 223 221 227 231 235 234 228 223 224 237 246 244 252 271 288 295 295 298 301 305 313 314 310 309 309 309 314 319 320 319 318 317 317 316 315 315 315 316 316 317 318 321 323 322 318 318 317 315 315 313 310 306 302 301 300 299 298 296 295 295 294 289 285 283 284 284 283 282 280 280 280 275 269
189 189 179 188 219 249 123 111 326 272 262 273 198 196 211 222 229 234 235 228 223 222 231 244 251 262 275 286 291 294 298 302 311 314 306 301 301 303 310 316 318 318 317 316 316 317 316 315 314 314 315 317 317 316 319 322 320 316 316 316 315 313 310 307 305 303 301 300 299 298 296 295 295 292 291 288 283 279 277 278 279 277 277 279 274 268
183 181 176 198 219 195 120 128 268 260 254 335 45 192 204 211 222 235 243 237 229 231 237 246 257 264 273 283 290 296 299 307 319 308 294 292 299 313 316 316 318 319 317 316 317 317 317 315 314 315 317 320 319 317 321 324 322 317 315 313 312 313 312 309 306 303 302 300 299 298 296 296 295 293 293 294 290 280 271 271 276 275 275 277 271 265
172 178 177 182 200 199 168 196 223 272 303 304 280 199 171 192 210 228 252 244 229 231 238 245 257 263 274 288 292 298 307 317 316 294 286 297 2 340 320 314 317 317 314 315 315 316 316 314 314 315 317 318 319 318 321 324 321 316 315 316 316 314 312 310 306 303 303 301 300 299 297 296 296 294 294 296 294 285 273 269 274 274 274 275 270 263
170 174 178 192 205 205 215 221 241 294 295 266 243 217 204 209 208 225 269 250 212 223 238 243 252 261 274 284 292 308 316 316 304 288 309 76 21 332 321 314 312 310 309 311 311 311 313 313 313 315 316 317 318 318 321 325 324 318 314 314 314 312 311 310 307 305 304 302 301 300 298 296 295 293 293 291 290 288 280 274 276 275 271 270 271 265
192 190 178 201 225 196 205 243 257 273 274 262 224 186 175 166 149 140 302 274 212 221 234 235 238 250 270 279 292 316 318 307 297 299 33 38 352 330 323 313 310 310 311 313 314 315 318 318 318 318 318 318 317 319 323 324 323 318 312 312 316 317 315 312 310 308 306 303 301 300 297 295 292 290 291 289 287 287 284 277 274 273 269 266 269 266
204 212 192 217 245 212 205 238 242 247 262 238 128 123 113 110 114 109 303 284 214 200 204 198 212 240 264 276 284 304 306 300 297 310 352 356 340 329 323 319 320 320 318 318 320 320 320 321 320 319 320 319 318 322 324 323 323 321 317 315 317 315 312 310 309 309 306 302 300 298 296 294 290 288 287 286 284 284 283 278 269 267 268 267 270 271
189 202 202 219 234 221 218 237 244 250 264 133 124 123 118 115 115 140 278 282 133 144 161 172 207 244 252 254 254 251 269 287 300 317 335 336 329 326 326 326 326 326 325 324 325 324 323 323 323 321 321 320 320 323 325 324 325 323 316 312 312 312 313 313 312 310 307 303 301 298 295 291 288 285 283 281 281 281 282 279 270 265 267 268 270 267
190 197 206 218 225 222 224 237 254 262 241 163 141 136 131 123 137 216 252 188 135 151 171 183 213 239 222 210 227 246 267 287 301 312 322 325 324 324 324 326 326 325 324 324 324 325 324 323 322 319 317 317 318 322 325 324 323 320 318 318 317 315 314 313 311 309 306 304 301 297 293 289 284 280 279 278 277 277 277 276 270 263 262 266 269 265
182 193 213 217 216 219 223 236 264 271 224 176 164 151 140 146 220 229 196 127 152 176 178 187 210 221 200 204 228 261 281 297 302 306 314 319 320 319 321 326 327 325 325 323 323 324 323 320 319 317 316 317 318 322 324 322 320 322 324 322 318 316 316 314 311 309 307 305 300 294 290 287 283 278 275 275 275 273 273 273 267 260 259 262 268 270
171 175 208 208 196 203 217 222 248 267 194 158 150 148 166 200 228 218 148 142 161 167 167 196 209 185 182 212 246 273 288 299 301 304 310 314 316 317 320 325 325 323 325 325 324 327 326 322 319 317 316 317 319 322 325 323 321 323 323 320 319 320 318 314 313 313 309 304 300 294 289 286 285 281 274 271 272 271 270 272 268 261 258 258 263 269
184 176 197 199 177 172 201 208 212 215 148 150 149 163 203 214 215 163 162 175 163 153 162 209 202 158 161 203 265 285 292 296 297 302 309 311 312 316 320 324 323 320 322 323 323 326 326 323 320 318 315 316 318 322 326 326 322 322 323 323 323 323 319 316 317 317 310 303 305 307 304 298 294 290 279 268 267 267 268 268 265 261 259 258 257 259
199 182 174 195 184 187 219 225 188 114 147 168 179 195 204 207 194 133 156 212 229 169 163 192 185 148 140 162 246 277 281 286 293 301 306 307 311 316 318 321 321 320 320 321 321 324 326 323 319 316 314 316 320 324 326 327 326 324 324 325 326 326 322 319 318 316 310 306 310 316 315 308 302 297 289 279 267 261 263 265 261 256 256 255 251 249
189 156 102 186 195 225 258 249 184 179 181 184 201 221 188 190 157 120 153 226 214 157 146 163 172 149 137 146 193 260 270 283 296 299 302 304 309 316 319 319 320 321 321 321 322 325 326 321 317 316 315 317 321 325 327 329 329 325 321 323 328 329 324 320 317 315 311 310 314 320 322 318 313 307 302 294 276 258 257 261 258 254 252 248 244 242
173 151 174 212 197 211 239 199 179 203 210 190 195 203 164 174 184 149 178 208 163 142 141 140 140 137 140 153 196 247 265 288 298 296 305 313 313 319 321 320 321 322 322 322 323 325 326 322 320 320 318 318 322 326 327 327 327 324 322 325 331 330 326 322 319 315 316 318 321 324 326 326 324 319 310 297 281 268 266 262 252 249 252 248 241 240
165 152 174 217 215 216 235 207 178 199 206 193 204 213 193 185 184 164 154 139 122 126 131 130 132 143 156 172 202 234 260 288 293 295 309 316 315 320 321 319 320 321 321 322 324 326 326 323 321 320 318 318 322 325 326 326 326 327 328 329 333 334 329 324 320 320 322 324 325 327 329 329 328 326 319 307 294 282 276 267 250 240 243 243 239 236
143 160 169 194 216 233 248 243 227 207 194 200 212 222 216 186 165 153 143 134 131 136 142 147 156 164 166 173 185 211 248 269 275 291 305 310 314 318 319 319 319 318 319 323 326 326 325 321 320 319 319 319 321 323 325 325 328 331 332 333 338 340 333 325 323 323 322 323 327 332 335 333 329 327 324 319 312 298 283 274 261 248 246 245 241 238
145 181 176 173 208 230 231 224 221 217 216 214 209 211 207 168 147 151 157 162 167 168 164 163 164 157 156 163 167 186 231 251 262 284 297 305 315 317 318 319 318 317 320 324 324 324 323 321 319 319 319 319 321 325 325 324 329 334 335 338 344 345 336 326 324 324 323 326 332 337 337 334 331 328 325 323 320 313 302 289 273 259 253 252 249 245
175 194 192 192 212 223 221 216 214 214 221 217 181 174 169 143 143 164 179 181 180 176 169 167 166 162 163 167 170 185 217 242 262 293 303 305 311 317 318 318 318 319 321 324 325 324 323 321 321 322 322 321 324 325 324 326 333 337 338 344 351 350 341 333 329 326 327 331 335 338 338 335 332 329 327 326 323 319 317 311 293 272 261 256 255 254